Location: Brookview Estates
(36.0476°N, 86.6931°W)
Time: 06:56:34
(UTC+00:00)

SeaSat 1 - Pass Details

Date: 30 March 2020
Orbit: 745 x 746 km, 108.0° (Epoch: 02 June)

Event Time Altitude Azimuth Distance (km) Brightness Sun altitude
Rises 00:29:52 0° 14° (NNE) 3,194 5.7 -5.5°
Reaches altitude 10° 00:32:19 10° 5° (N) 2,266 5.0 -6.0°
Maximum altitude 00:36:40 33° 302° (WNW) 1,251 4.4 -6.8°
Drops below altitude 10° 00:41:00 10° 240° (WSW) 2,256 5.7 -7.7°
Sets 00:43:27 0° 231° (SW) 3,177 6.3 -8.2°
